User: anonymous   Login
Location: Caltech
(34.1382°N, 118.1253°W)
Time: 17:36:41
(UTC-07:00)
Language:

SL-08 R/B - Orbit

View from above orbital plane
View from above orbital plane
View from above satellite
View from above satellite

Ground track
Ground track

The orbit data is extracted from the following two-line orbital elements,

1 27561U 02054C   17232.46225551 +.00000028 +00000-0 +17086-4 0  9993
2 27561 098.2665 005.5811 0045651 337.9972 021.9265 14.55621368781552
Epoch (UTC): 20 August 2017 11:05:38
Eccentricity: 0.0045651
inclination: 98.2665°
perigee height: 675 km
apogee height: 739 km
right ascension of ascending node: 5.5811°
argument of perigee: 337.9972°
revolutions per day: 14.55621368
mean anomaly at epoch: 21.9265°
orbit number at epoch: 78155

The dashed part of the orbit path shows where the satellite is in the earth's shadow,  

DLR